When you browse on this site, cookies collect data to enhance your experience and personalize the content and advertising you see.
Visit our Privacy Policy to learn more. By continuing to use the site, you agree to this use of cookies and data.
  • In Latvia
  • List of Countries
  • For 7 days
  • Water Temperature
  • Satellite Maps
  • Weather Map
  • Weather Widgets
  • user-avatar
    Login

    Hourly Weather Sydney

    Today, 24 March, Sunday

    Time Temperature Precipitation Wind Pressure Humidity
    00:00 +24°C° 0 mm 3 mps 758 mmHg 86%
    01:00 +24°C° 0 mm 3 mps 758 mmHg 87%
    02:00 +24°C° 0 mm 3 mps 758 mmHg 86%
    03:00 +24°C° 0 mm 2 mps 757 mmHg 85%
    04:00 +24°C° 0 mm 2 mps 757 mmHg 86%
    05:00 +24°C° 0 mm 2 mps 757 mmHg 85%
    06:00 +24°C° 0 mm 1 mps 757 mmHg 84%
    07:00 +24°C° 0 mm 1 mps 758 mmHg 83%
    08:00 +27°C° 0 mm 1 mps 758 mmHg 71%
    09:00 +29°C° 0 mm 1 mps 758 mmHg 60%
    10:00 +31°C° 0 mm 1 mps 758 mmHg 54%
    11:00 +31°C° 0 mm 3 mps 758 mmHg 50%
    12:00 +33°C° 0 mm 4 mps 757 mmHg 46%
    13:00 +34°C° 0 mm 5 mps 757 mmHg 41%
    14:00 +33°C° 0 mm 5 mps 756 mmHg 46%
    15:00 +30°C° 0 mm 5 mps 756 mmHg 51%
    16:00 +29°C° 0 mm 2 mps 756 mmHg 56%
    17:00 +28°C° 0 mm 2 mps 757 mmHg 59%
    18:00 +27°C° 0 mm 2 mps 757 mmHg 62%
    19:00 +26°C° 0 mm 1 mps 757 mmHg 65%
    20:00 +26°C° 0 mm 1 mps 757 mmHg 65%
    21:00 +26°C° 0 mm 2 mps 758 mmHg 66%
    22:00 +26°C° 0 mm 2 mps 758 mmHg 66%
    23:00 +26°C° 0 mm 2 mps 757 mmHg 67%

    Tomorrow, 25 March, Monday

    Time Temperature Precipitation Wind Pressure Humidity
    00:00 +25°C° 0 mm 3 mps 757 mmHg 68%
    01:00 +25°C° 0 mm 3 mps 757 mmHg 70%
    02:00 +25°C° 0.4 mm 3 mps 757 mmHg 72%
    03:00 +25°C° 0.4 mm 3 mps 756 mmHg 75%
    04:00 +24°C° 0.4 mm 3 mps 756 mmHg 78%
    05:00 +24°C° 0 mm 3 mps 756 mmHg 78%
    06:00 +24°C° 0 mm 2 mps 756 mmHg 77%
    07:00 +24°C° 0 mm 2 mps 756 mmHg 77%
    08:00 +25°C° 0.3 mm 2 mps 756 mmHg 77%
    09:00 +25°C° 0.3 mm 3 mps 756 mmHg 77%
    10:00 +25°C° 0.3 mm 4 mps 756 mmHg 77%
    11:00 +26°C° 0.3 mm 5 mps 756 mmHg 75%
    12:00 +26°C° 0.3 mm 7 mps 756 mmHg 73%
    13:00 +26°C° 0.3 mm 8 mps 755 mmHg 72%
    14:00 +27°C° 0 mm 8 mps 755 mmHg 70%
    15:00 +27°C° 0 mm 8 mps 755 mmHg 68%
    16:00 +27°C° 0 mm 8 mps 755 mmHg 66%
    17:00 +27°C° 0 mm 7 mps 756 mmHg 67%
    18:00 +27°C° 0 mm 6 mps 756 mmHg 67%
    19:00 +27°C° 0 mm 5 mps 757 mmHg 67%
    20:00 +26°C° 0 mm 4 mps 757 mmHg 69%
    21:00 +25°C° 0 mm 3 mps 758 mmHg 70%
    22:00 +25°C° 0 mm 3 mps 758 mmHg 71%
    23:00 +24°C° 0 mm 3 mps 758 mmHg 69%

    Day after tomorrow, 26 March, Tuesday

    Time Temperature Precipitation Wind Pressure Humidity
    00:00 +23°C° 0 mm 4 mps 759 mmHg 67%
    01:00 +22°C° 0 mm 4 mps 759 mmHg 64%
    02:00 +21°C° 0 mm 5 mps 759 mmHg 60%
    03:00 +20°C° 0 mm 6 mps 760 mmHg 56%
    04:00 +18°C° 0 mm 7 mps 760 mmHg 52%
    05:00 +18°C° 0 mm 7 mps 760 mmHg 51%
    06:00 +17°C° 0 mm 7 mps 761 mmHg 49%
    07:00 +16°C° 0 mm 7 mps 762 mmHg 47%
    08:00 +17°C° 0 mm 7 mps 762 mmHg 43%
    09:00 +20°C° 0 mm 6 mps 762 mmHg 38%
    10:00 +21°C° 0 mm 6 mps 763 mmHg 33%
    11:00 +22°C° 0 mm 6 mps 763 mmHg 30%
    12:00 +25°C° 0 mm 5 mps 762 mmHg 27%
    13:00 +26°C° 0 mm 5 mps 762 mmHg 23%
    14:00 +26°C° 0 mm 5 mps 762 mmHg 26%
    15:00 +26°C° 0 mm 5 mps 762 mmHg 28%
    16:00 +25°C° 0 mm 5 mps 762 mmHg 30%
    17:00 +23°C° 0 mm 5 mps 763 mmHg 37%
    18:00 +22°C° 0 mm 5 mps 763 mmHg 43%
    19:00 +20°C° 0 mm 5 mps 764 mmHg 50%
    20:00 +20°C° 0 mm 5 mps 765 mmHg 52%
    21:00 +20°C° 0 mm 5 mps 766 mmHg 54%
    22:00 +20°C° 0 mm 4 mps 767 mmHg 56%
    23:00 +20°C° 0 mm 4 mps 767 mmHg 57%

    27 March, Wednesday

    Time Temperature Precipitation Wind Pressure Humidity
    00:00 +19°C° 0 mm 4 mps 767 mmHg 59%
    01:00 +19°C° 0 mm 4 mps 767 mmHg 60%
    02:00 +19°C° 0 mm 4 mps 767 mmHg 60%
    03:00 +20°C° 0 mm 3 mps 767 mmHg 60%
    04:00 +20°C° 0 mm 3 mps 766 mmHg 60%
    05:00 +20°C° 0 mm 3 mps 767 mmHg 61%
    06:00 +20°C° 0 mm 3 mps 767 mmHg 62%
    07:00 +20°C° 0 mm 3 mps 768 mmHg 62%
    08:00 +21°C° 0 mm 3 mps 768 mmHg 58%
    09:00 +22°C° 0 mm 4 mps 768 mmHg 54%
    10:00 +25°C° 0 mm 4 mps 768 mmHg 49%
    11:00 +23°C° 0 mm 4 mps 768 mmHg 51%
    12:00 +23°C° 0 mm 4 mps 767 mmHg 53%
    13:00 +22°C° 0 mm 3 mps 767 mmHg 55%
    14:00 +24°C° 0 mm 3 mps 767 mmHg 55%
    15:00 +23°C° 0 mm 4 mps 766 mmHg 54%
    16:00 +23°C° 0 mm 4 mps 766 mmHg 53%
    17:00 +24°C° 0 mm 3 mps 766 mmHg 56%
    18:00 +22°C° 0 mm 3 mps 766 mmHg 59%
    19:00 +21°C° 0 mm 3 mps 767 mmHg 62%
    20:00 +21°C° 0 mm 3 mps 767 mmHg 63%
    21:00 +21°C° 0 mm 3 mps 767 mmHg 63%
    22:00 +21°C° 0 mm 2 mps 767 mmHg 64%
    23:00 +21°C° 0 mm 2 mps 766 mmHg 65%

    28 March, Thursday

    Time Temperature Precipitation Wind Pressure Humidity
    00:00 +21°C° 0 mm 2 mps 766 mmHg 65%
    01:00 +21°C° 0 mm 2 mps 765 mmHg 66%
    02:00 +22°C° 0 mm 1 mps 765 mmHg 67%
    03:00 +22°C° 0 mm 1 mps 764 mmHg 68%
    04:00 +22°C° 0 mm 1 mps 764 mmHg 69%
    05:00 +22°C° 0 mm 1 mps 764 mmHg 69%
    06:00 +22°C° 0 mm 1 mps 764 mmHg 70%
    07:00 +21°C° 0 mm 2 mps 765 mmHg 71%
    08:00 +23°C° 0 mm 2 mps 765 mmHg 67%
    09:00 +24°C° 0 mm 2 mps 765 mmHg 63%
    10:00 +25°C° 0 mm 2 mps 765 mmHg 59%
    11:00 +25°C° 0.1 mm 2 mps 764 mmHg 64%
    12:00 +24°C° 0.1 mm 2 mps 763 mmHg 69%
    13:00 +23°C° 0.1 mm 1 mps 763 mmHg 74%
    14:00 +24°C° 0.1 mm 2 mps 762 mmHg 71%
    15:00 +25°C° 0.1 mm 2 mps 762 mmHg 68%
    16:00 +25°C° 0.1 mm 2 mps 761 mmHg 65%
    17:00 +25°C° 0 mm 3 mps 761 mmHg 69%
    18:00 +24°C° 0 mm 3 mps 761 mmHg 73%
    19:00 +24°C° 0 mm 3 mps 762 mmHg 77%
    20:00 +22°C° 0 mm 3 mps 762 mmHg 79%
    21:00 +22°C° 0 mm 3 mps 762 mmHg 80%
    22:00 +22°C° 0 mm 3 mps 762 mmHg 82%
    23:00 +21°C° 0 mm 3 mps 761 mmHg 83%

    29 March, Friday

    Time Temperature Precipitation Wind Pressure Humidity
    00:00 +21°C° 0 mm 3 mps 761 mmHg 84%
    01:00 +21°C° 0 mm 3 mps 760 mmHg 85%
    02:00 +21°C° 0 mm 2 mps 760 mmHg 85%
    03:00 +20°C° 0 mm 2 mps 760 mmHg 85%
    04:00 +20°C° 0 mm 2 mps 759 mmHg 86%
    05:00 +20°C° 0 mm 2 mps 759 mmHg 85%
    06:00 +20°C° 0 mm 2 mps 759 mmHg 85%
    07:00 +21°C° 0 mm 2 mps 759 mmHg 84%
    08:00 +22°C° 0 mm 3 mps 759 mmHg 78%
    09:00 +24°C° 0 mm 3 mps 759 mmHg 72%
    10:00 +26°C° 0 mm 3 mps 759 mmHg 65%
    11:00 +27°C° 0 mm 3 mps 758 mmHg 60%
    12:00 +28°C° 0 mm 3 mps 757 mmHg 55%
    13:00 +29°C° 0 mm 3 mps 756 mmHg 51%
    14:00 +29°C° 0.2 mm 4 mps 756 mmHg 55%
    15:00 +28°C° 0.2 mm 4 mps 755 mmHg 59%
    16:00 +28°C° 0.2 mm 4 mps 755 mmHg 64%
    17:00 +27°C° 1.8 mm 4 mps 755 mmHg 68%
    18:00 +26°C° 1.8 mm 4 mps 755 mmHg 73%
    19:00 +25°C° 1.8 mm 3 mps 756 mmHg 77%
    20:00 +25°C° 0.6 mm 3 mps 755 mmHg 79%
    21:00 +25°C° 0.6 mm 3 mps 755 mmHg 80%
    22:00 +24°C° 0.6 mm 2 mps 755 mmHg 82%
    23:00 +24°C° 0.2 mm 2 mps 755 mmHg 83%
    Show more